sat.trackr.live / text

‹ back to catalog

STARLINK-32255

NORAD 60417 · 2024-141V

PAYLOAD ACTIVE UNKNOWN

§ Identity

Operator
Country
US
Launch date
2024-08-10
Launch site
AFETR
Launch vehicle
Mass (kg)
RCS (m²)

Purposes: comms

External: N2YO · Heavens-Above · Gunter

§ Orbital elements

Epoch: 2026-05-25T00:28:41.185632Z

Period
93.85 min
Inclination
53.1594°
Eccentricity
0.0001138
Mean motion
15.34394111 rev/d
Perigee alt
461.9 km
Apogee alt
463.5 km
Semi-major
6,840.9 km
B*
7.8397e-5
RAAN
247.5786°
Arg perigee
81.2473°
Mean anomaly
278.8658°
Rev number
10,127

§ Raw data

STARLINK-322551 60417U 24141V   26145.01992113  .00002273  00000+0  78397-4 0  99952 60417  53.1594 247.5786 0001138  81.2473 278.8658 15.34394111101271

JSON: /api/v1/satellites/60417 · /tle

For live sub-satellite position, see the globe view (requires WebGL).

§ Visibility from observer

Set your observer location to see the next 7 days of passes ≥ 10°. The values pass through the URL so the page stays shareable.

No JS? Fill the form by hand. The geolocation button needs JavaScript.